Location: Unspecified
(0.0000°N, 0.0000°E)
Time: 18:42:05
(UTC+00:00)

Amateur Radio Satellites - All Passes

Search period start: 19 August 2017 18:12
Search period end: 20 August 2017 18:12
Location: Unspecified, 0.0000°N, 0.0000°E

Satellite Date Start Highest point End Downlink Frequencies (MHz)
Time Altitude Azimuth
Tancredo 1 19 Aug 18:14:19 18:17:05 47° 54° (NE) 18:19:53 437.200
SEEDS 19 Aug 18:17:22 18:18:59 12° 78° (ENE) 18:20:35 437.485
STARS 19 Aug 18:17:23 18:19:06 12° 282° (WNW) 18:20:48 437.465
LilacSat-2 19 Aug 18:28:14 18:30:49 18° 259° (WSW) 18:33:25 437.200
XW-2D 19 Aug 18:35:05 18:37:13 15° 258° (WSW) 18:39:22 145.860 - 145.880
XW-2A 19 Aug 18:43:09 18:45:41 20° 79° (E) 18:48:12 145.665 - 145.685
XW-2B 19 Aug 18:47:32 18:48:12 10° 258° (WSW) 18:48:52 145.730 - 145.750
NUDT-PHONESAT 19 Aug 18:48:30 18:50:25 14° 258° (WSW) 18:52:19 437.300
STRAND 1 19 Aug 18:50:05 18:55:02 53° 102° (ESE) 19:00:01 437.568
UWE-3 19 Aug 18:50:36 18:53:09 15° 79° (E) 18:55:40 435.000/436.395/437.385
CUBEBUG 2 19 Aug 18:52:41 18:56:49 35° 79° (E) 19:00:47 437.445
ISS 19 Aug 18:53:38 18:56:16 23° 54° (NE) 18:58:56 437.550
CUTE 1.7 + AOD 2 19 Aug 18:59:08 19:03:20 79° 259° (WSW) 19:07:31 437.475
nSIGHT-1 19 Aug 19:03:55 19:06:53 36° 54° (NE) 19:09:53 .
AAUSAT CUBESAT 2 19 Aug 19:06:21 19:09:38 23° 79° (ENE) 19:12:55 437.432
HO-68 19 Aug 19:11:01 19:18:11 74° 256° (WSW) 19:25:19 435.675
JUGNU 19 Aug 19:29:16 19:34:53 47° 200° (SSW) 19:40:31 437.505
ZACube-1 19 Aug 19:33:05 19:36:45 28° 79° (E) 19:40:20 437.345
SRMSAT 19 Aug 19:36:07 19:41:36 38° 20° (NNE) 19:47:07 437.500
SEEDS 19 Aug 19:50:59 19:54:23 25° 258° (WSW) 19:57:48 437.485
AO-73 19 Aug 19:54:49 19:58:59 51° 79° (E) 20:03:01 145.935
UWE-3 19 Aug 20:25:58 20:29:21 22° 258° (WSW) 20:32:38 435.000/436.395/437.385
DELFI C3 19 Aug 20:28:13 20:30:24 14° 78° (ENE) 20:32:35 145.870
SO-50 19 Aug 20:28:36 20:31:20 16° 113° (ESE) 20:34:02 436.795
O/OREOS (USA 219) 19 Aug 20:32:12 20:36:39 54° 256° (WSW) 20:41:09 437.305
Max Valier Satellite 19 Aug 20:36:27 20:37:51 12° 79° (ENE) 20:39:15 145.860
UNISAT 6 19 Aug 20:37:18 20:39:08 12° 103° (ESE) 20:40:59 437.425
Oscar 11 19 Aug 20:41:43 20:45:50 47° 258° (WSW) 20:49:58 .
AAUSAT CUBESAT 2 19 Aug 20:43:00 20:44:49 13° 258° (WSW) 20:46:38 437.432
FO-29 19 Aug 20:44:39 20:49:36 47° 103° (ESE) 20:54:39 435.910
PCSat 19 Aug 20:51:26 20:56:43 57° 109° (ESE) 21:02:01 145.827
TIGRISAT 19 Aug 21:10:38 21:14:36 33° 102° (ESE) 21:18:42 435.000
PRISM 19 Aug 21:11:22 21:14:31 22° 102° (ESE) 21:17:39 437.425
ZACube-1 19 Aug 21:11:35 21:12:43 11° 257° (WSW) 21:13:51 437.345
JUGNU 19 Aug 21:20:02 21:24:12 20° 195° (SSW) 21:28:24 437.505
RS-15 19 Aug 21:21:57 21:33:21 73° 69° (ENE) 21:44:15 29.354- 29.394
SRMSAT 19 Aug 21:24:51 21:30:51 79° 201° (SSW) 21:36:51 437.500
EO-88 19 Aug 21:31:46 21:35:24 77° 79° (E) 21:39:00 145.990 - 145.960
DELFI C3 19 Aug 22:02:05 22:04:53 19° 259° (WSW) 22:07:41 145.870
SO-50 19 Aug 22:07:48 22:11:33 25° 292° (WNW) 22:15:15 436.795
Max Valier Satellite 19 Aug 22:08:53 22:11:25 18° 258° (WSW) 22:13:56 145.860
UNISAT 6 19 Aug 22:11:44 22:15:31 28° 281° (WNW) 22:19:26 437.425
M-CUBED/EXP-1 PRIME 19 Aug 22:17:54 22:19:59 14° 104° (ESE) 22:21:59 437.505
AIST 2D 19 Aug 22:24:35 22:27:28 23° 101° (E) 22:30:21 435.315
PRISM 19 Aug 22:47:37 22:49:31 13° 282° (WNW) 22:51:24 437.425
TIGRISAT 19 Aug 22:50:41 22:51:03 10° 281° (WNW) 22:51:28 435.000
NANOSAT C BR1 19 Aug 23:03:26 23:06:57 26° 102° (ESE) 23:10:30 145.865
ESTCUBE 1 19 Aug 23:03:40 23:08:09 73° 78° (ENE) 23:12:36 437.505/2401.250
POLYITAN 1 19 Aug 23:06:20 23:10:09 34° 102° (ESE) 23:14:00 437.675
LO-87 19 Aug 23:06:52 23:10:19 41° 259° (WSW) 23:13:44 145.935 - 145.965
JUGNU 19 Aug 23:12:37 23:14:06 11° 186° (S) 23:15:34 437.505
SRMSAT 19 Aug 23:15:00 23:20:10 30° 198° (SSW) 23:25:22 437.500
VELOX 1 19 Aug 23:19:12 23:21:33 14° 78° (ENE) 23:23:55 145.980
QB50P2 19 Aug 23:20:59 23:25:10 66° 102° (ESE) 23:29:23 145.880/145.840
NO-84 19 Aug 23:22:10 23:24:56 24° 300° (WNW) 23:27:32 435.350 FM
EO-79 19 Aug 23:22:17 23:26:25 60° 101° (E) 23:30:36 145.935-145.965
SPROUT 19 Aug 23:36:59 23:40:52 34° 78° (ENE) 23:44:43 437.525
RS-15 19 Aug 23:39:02 23:45:18 17° 248° (WSW) 23:51:31 29.354- 29.394
M-CUBED/EXP-1 PRIME 19 Aug 23:51:39 23:54:11 17° 287° (WNW) 23:56:37 437.505
DUCHIFAT 1 19 Aug 23:54:09 23:58:16 60° 282° (WNW) 00:02:26 145.980
BUGSAT 1 20 Aug 00:00:52 00:04:20 28° 102° (ESE) 00:07:52 437.445
Oscar 19 20 Aug 00:04:41 00:06:37 12° 103° (ESE) 00:08:32 437.125/150
50 SAT 20 Aug 00:10:49 00:13:15 18° 79° (ENE) 00:15:41 437.505
NANOSAT C BR1 20 Aug 00:41:00 00:42:24 11° 282° (WNW) 00:43:48 145.865
UKube-1 20 Aug 00:42:03 00:45:31 24° 78° (ENE) 00:48:58 .
VELOX 1 20 Aug 00:54:04 00:57:43 25° 258° (WSW) 01:01:21 145.980
DX 1 20 Aug 00:59:42 01:04:05 78° 78° (ENE) 01:08:27 434.975-435.025
Gurwin Techsat 1B 20 Aug 01:03:13 01:08:08 39° 103° (ESE) 01:13:04 435.225
JUGNU 20 Aug 01:03:27 01:04:19 10° 175° (S) 01:05:12 437.505
SRMSAT 20 Aug 01:06:52 01:09:59 14° 191° (S) 01:13:06 437.500
Oscar 19 20 Aug 01:40:48 01:45:38 40° 283° (WNW) 01:50:28 437.125/150
MOZHAYETS 4 20 Aug 02:11:24 02:14:30 18° 78° (ENE) 02:17:36
BEESAT 20 Aug 02:14:34 02:18:34 27° 77° (ENE) 02:22:30 436.000
UKube-1 20 Aug 02:19:01 02:21:16 14° 257° (WSW) 02:23:31 .
AO-7 20 Aug 02:25:44 02:33:08 37° 106° (ESE) 02:40:32 .
Gurwin Techsat 1B 20 Aug 02:45:29 02:47:47 13° 283° (WNW) 02:50:07 435.225
ITUPSAT 1 20 Aug 02:47:11 02:51:57 73° 78° (ENE) 02:56:41 437.325
JUGNU 20 Aug 02:50:26 02:54:19 18° 166° (SSE) 02:58:13 437.505
ITAMSAT 1 20 Aug 02:57:05 03:02:08 55° 103° (ESE) 03:07:11 435.822/435.867
BEESAT 3 20 Aug 02:57:58 03:01:35 37° 111° (ESE) 03:05:14 437.485
BEESAT 2 20 Aug 03:10:53 03:12:17 12° 112° (ESE) 03:13:40 435.950
YUBILEINY 20 Aug 03:24:17 03:32:57 79° 267° (W) 03:41:41 435.215
AO-85 20 Aug 03:37:08 03:41:29 81° 113° (ESE) 03:45:33 145.980
MOZHAYETS 4 20 Aug 03:48:02 03:51:23 20° 258° (WSW) 03:54:43
BEESAT 20 Aug 03:53:16 03:56:02 15° 257° (WSW) 03:58:48 436.000
CUBESAT XI-V 20 Aug 04:03:08 04:07:45 81° 77° (ENE) 04:12:21 437.345
KKS-1 20 Aug 04:07:45 04:11:45 32° 78° (ENE) 04:15:44 437.445
AO-7 20 Aug 04:18:40 04:25:32 30° 287° (WNW) 04:32:26 .
JUGNU 20 Aug 04:38:11 04:43:46 40° 160° (SSE) 04:49:22 437.505
DOVE 4 20 Aug 04:41:20 04:45:12 36° 101° (E) 04:49:01 437.250
BEESAT 2 20 Aug 04:46:39 04:49:44 23° 292° (WNW) 04:52:52 435.950
SRMSAT 20 Aug 04:47:57 04:50:38 13° 170° (S) 04:53:19 437.500
STARS 20 Aug 04:49:42 04:53:50 39° 78° (ENE) 04:57:57 437.465
LilacSat-2 20 Aug 04:50:02 04:51:02 11° 102° (ESE) 04:52:02 437.200
XW-2D 20 Aug 04:55:04 04:56:49 13° 102° (ESE) 04:58:32 145.860 - 145.880
CUTE-I 20 Aug 04:59:05 05:02:07 15° 103° (ESE) 05:05:07 437.470
XW-2B 20 Aug 05:05:11 05:07:48 18° 101° (ESE) 05:10:25 145.730 - 145.750
NUDT-PHONESAT 20 Aug 05:06:37 05:08:00 12° 102° (ESE) 05:09:24 437.300
XW-2C 20 Aug 05:23:15 05:26:47 35° 101° (ESE) 05:30:19 145.795 - 145.815
XW-2F 20 Aug 05:36:12 05:39:56 53° 101° (E) 05:43:41 145.980 - 146.000
Tancredo 1 20 Aug 05:39:38 05:41:49 19° 126° (SE) 05:43:59 437.200
KKS-1 20 Aug 05:46:47 05:48:01 11° 257° (WSW) 05:49:14 437.445
KAITUO 1B 20 Aug 06:03:22 06:07:09 71° 281° (W) 06:10:56 145.475/437.950
SEEDS 20 Aug 06:21:42 06:24:03 15° 102° (ESE) 06:26:24 437.485
LilacSat-2 20 Aug 06:21:57 06:25:02 23° 281° (W) 06:28:07 437.200
JUGNU 20 Aug 06:26:52 06:32:52 76° 338° (NNW) 06:38:52 437.505
XW-2A 20 Aug 06:27:10 06:28:02 11° 102° (ESE) 06:28:54 145.665 - 145.685
XW-2D 20 Aug 06:27:55 06:30:42 19° 281° (W) 06:33:30 145.860 - 145.880
ISS 20 Aug 06:28:14 06:30:13 15° 126° (SE) 06:32:13 437.550
SRMSAT 20 Aug 06:35:35 06:40:31 26° 162° (SSE) 06:45:26 437.500
CUTE-I 20 Aug 06:37:08 06:41:51 33° 283° (WNW) 06:46:36 437.470
nSIGHT-1 20 Aug 06:37:30 06:40:07 22° 126° (SE) 06:42:45 .
NUDT-PHONESAT 20 Aug 06:38:51 06:41:36 20° 281° (W) 06:44:22 437.300
XW-2B 20 Aug 06:39:40 06:41:42 14° 281° (W) 06:43:44 145.730 - 145.750
UWE-3 20 Aug 07:00:19 07:03:45 22° 102° (ESE) 07:07:15 435.000/436.395/437.385
HO-68 20 Aug 07:02:28 07:09:37 87° 287° (WNW) 07:16:50 435.675
CUBEBUG 2 20 Aug 07:04:17 07:08:31 51° 102° (ESE) 07:12:54 437.445
CUTE 1.7 + AOD 2 20 Aug 07:05:18 07:09:31 63° 282° (WNW) 07:13:45 437.475
O/OREOS (USA 219) 20 Aug 07:07:32 07:08:37 11° 105° (ESE) 07:09:42 437.305
AAUSAT CUBESAT 2 20 Aug 07:09:30 07:12:58 26° 101° (ESE) 07:16:25 437.432
STRAND 1 20 Aug 07:22:40 07:27:43 60° 257° (WSW) 07:32:46 437.568
ZACube-1 20 Aug 07:41:56 07:46:04 40° 102° (ESE) 07:50:18 437.345
PCSat 20 Aug 07:47:59 07:49:41 11° 70° (ENE) 07:51:23 145.827
SEEDS 20 Aug 07:56:15 07:59:28 21° 282° (WNW) 08:02:40 437.485
XW-2A 20 Aug 07:58:15 08:00:29 16° 281° (W) 08:02:44 145.665 - 145.685
AO-73 20 Aug 08:03:32 08:07:56 72° 102° (ESE) 08:12:26 145.935
ISS 20 Aug 08:04:22 08:06:30 16° 306° (NW) 08:08:37 437.550
nSIGHT-1 20 Aug 08:15:31 08:16:18 11° 306° (NW) 08:17:05 .
FO-29 20 Aug 08:15:43 08:22:39 35° 77° (ENE) 08:29:24 435.910
JUGNU 20 Aug 08:16:57 08:22:03 29° 342° (NNW) 08:27:08 437.505
SRMSAT 20 Aug 08:23:58 08:29:54 68° 159° (SSE) 08:35:47 437.500
DELFI C3 20 Aug 08:26:33 08:28:28 13° 102° (ESE) 08:30:21 145.870
UWE-3 20 Aug 08:37:15 08:39:56 16° 281° (W) 08:42:40 435.000/436.395/437.385
SO-50 20 Aug 08:39:46 08:43:45 28° 68° (ENE) 08:47:46 436.795
O/OREOS (USA 219) 20 Aug 08:43:50 08:47:45 30° 284° (WNW) 08:51:39 437.305
AAUSAT CUBESAT 2 20 Aug 08:46:51 08:48:08 11° 282° (WNW) 08:49:25 437.432
UNISAT 6 20 Aug 08:49:26 08:52:36 19° 79° (ENE) 08:55:42 437.425
Oscar 11 20 Aug 08:50:26 08:54:24 35° 282° (WNW) 08:58:24 .
RS-15 20 Aug 09:02:47 09:14:18 63° 110° (ESE) 09:26:16 29.354- 29.394
PRISM 20 Aug 09:13:37 09:16:58 24° 78° (ENE) 09:20:19 437.425
EO-88 20 Aug 09:21:25 09:24:58 49° 101° (ESE) 09:28:32 145.990 - 145.960
TIGRISAT 20 Aug 09:23:35 09:28:00 52° 79° (ENE) 09:32:16 435.000
PCSat 20 Aug 09:27:43 09:32:49 45° 251° (WSW) 09:37:57 145.827
Max Valier Satellite 20 Aug 09:59:06 10:02:11 25° 281° (WNW) 10:05:19 145.860
DELFI C3 20 Aug 10:00:06 10:02:57 19° 281° (WNW) 10:05:49 145.870
FO-29 20 Aug 10:00:33 10:07:15 32° 256° (WSW) 10:13:53 435.910
JUGNU 20 Aug 10:08:49 10:11:42 14° 349° (N) 10:14:34 437.505
AIST 2D 20 Aug 10:11:37 10:13:22 13° 79° (E) 10:15:07 435.315
SRMSAT 20 Aug 10:13:28 10:19:07 44° 340° (NNW) 10:24:43 437.500
M-CUBED/EXP-1 PRIME 20 Aug 10:15:39 10:18:07 16° 73° (ENE) 10:20:42 437.505
SO-50 20 Aug 10:21:26 10:23:59 14° 247° (WSW) 10:26:32 436.795
UNISAT 6 20 Aug 10:25:53 10:29:02 19° 257° (WSW) 10:32:08 437.425
PRISM 20 Aug 10:50:15 10:51:57 12° 258° (WSW) 10:53:40 437.425
LO-87 20 Aug 10:54:29 10:57:58 70° 282° (WNW) 11:01:30 145.935 - 145.965
NO-84 20 Aug 11:03:49 11:07:19 37° 237° (WSW) 11:11:06 435.350 FM
NANOSAT C BR1 20 Aug 11:08:53 11:12:38 32° 79° (ENE) 11:16:23 145.865
POLYITAN 1 20 Aug 11:12:25 11:16:25 42° 78° (ENE) 11:20:23 437.675
ESTCUBE 1 20 Aug 11:17:36 11:22:05 71° 283° (WNW) 11:26:36 437.505/2401.250
RS-15 20 Aug 11:17:48 11:26:30 24° 293° (WNW) 11:35:29 29.354- 29.394
QB50P2 20 Aug 11:27:13 11:31:29 83° 76° (ENE) 11:35:41 145.880/145.840
EO-79 20 Aug 11:28:16 11:32:31 75° 77° (ENE) 11:36:43 145.935-145.965
VELOX 1 20 Aug 11:29:45 11:32:56 20° 102° (ESE) 11:36:07 145.980
SPROUT 20 Aug 11:43:43 11:47:44 42° 102° (ESE) 11:51:46 437.525
AIST 2D 20 Aug 11:44:31 11:46:18 14° 259° (W) 11:48:05 435.315
M-CUBED/EXP-1 PRIME 20 Aug 11:49:10 11:52:14 21° 256° (WSW) 11:55:28 437.505
DUCHIFAT 1 20 Aug 11:59:34 12:03:39 49° 258° (WSW) 12:07:42 145.980
BUGSAT 1 20 Aug 12:03:45 12:07:29 31° 79° (ENE) 12:11:09 437.445
SRMSAT 20 Aug 12:04:37 12:08:38 19° 345° (NNW) 12:12:38 437.500
Oscar 19 20 Aug 12:35:46 12:40:15 31° 77° (ENE) 12:44:44 437.125/150
UKube-1 20 Aug 12:50:00 12:53:47 30° 102° (ESE) 12:57:33 .
VELOX 1 20 Aug 13:06:14 13:09:06 17° 282° (WNW) 13:11:58 145.980
DX 1 20 Aug 13:09:15 13:13:33 76° 282° (WNW) 13:17:53 434.975-435.025
50 SAT 20 Aug 13:25:29 13:27:51 18° 281° (WNW) 13:30:12 437.505
Gurwin Techsat 1B 20 Aug 13:41:22 13:46:40 71° 257° (WSW) 13:51:57 435.225
JUGNU 20 Aug 13:49:26 13:51:58 13° 10° (N) 13:54:29 437.505
SRMSAT 20 Aug 13:57:44 13:58:43 10° 354° (N) 13:59:41 437.500
YUBILEINY 20 Aug 14:03:22 14:10:12 25° 93° (E) 14:16:57 435.215
Oscar 19 20 Aug 14:16:20 14:19:17 15° 257° (WSW) 14:22:14 437.125/150
MOZHAYETS 4 20 Aug 14:26:57 14:31:01 31° 102° (ESE) 14:35:06
UKube-1 20 Aug 14:28:50 14:29:31 10° 282° (WNW) 14:30:13 .
BEESAT 20 Aug 14:35:38 14:40:15 52° 102° (ESE) 14:44:54 436.000
BEESAT 3 20 Aug 14:49:42 14:53:16 36° 68° (ENE) 14:56:47 437.485
AO-7 20 Aug 14:51:19 14:59:33 60° 74° (ENE) 15:07:44 .
BEESAT 2 20 Aug 15:03:35 15:05:14 12° 67° (ENE) 15:06:53 435.950
ITUPSAT 1 20 Aug 15:09:21 15:14:02 57° 283° (WNW) 15:18:45 437.325
ITAMSAT 1 20 Aug 15:32:05 15:37:12 55° 257° (WSW) 15:42:17 435.822/435.867
JUGNU 20 Aug 15:36:48 15:41:37 26° 18° (NNE) 15:46:27 437.505
SRMSAT 20 Aug 15:48:09 15:49:05 10° 6° (N) 15:50:02 437.500
AO-85 20 Aug 15:48:19 15:53:04 57° 248° (WSW) 15:58:10 145.980
YUBILEINY 20 Aug 15:58:28 16:06:36 41° 273° (W) 16:14:42 435.215
MOZHAYETS 4 20 Aug 16:05:59 16:07:54 12° 282° (WNW) 16:09:50
KKS-1 20 Aug 16:19:48 16:24:02 47° 102° (ESE) 16:28:17 437.445
CUBESAT XI-V 20 Aug 16:21:22 16:25:56 57° 282° (WNW) 16:30:31 437.345
BEESAT 2 20 Aug 16:39:39 16:42:44 22° 248° (WSW) 16:45:46 435.950
AO-7 20 Aug 16:46:50 16:51:52 17° 253° (WSW) 16:56:56 .
XW-2B 20 Aug 16:59:31 17:01:24 13° 79° (ENE) 17:03:16 145.730 - 145.750
STARS 20 Aug 17:00:11 17:04:26 55° 102° (ESE) 17:08:42 437.465
DOVE 4 20 Aug 17:00:13 17:05:26 79° 78° (ENE) 17:10:44 437.250
XW-2C 20 Aug 17:17:14 17:20:25 27° 79° (E) 17:23:35 145.795 - 145.815
JUGNU 20 Aug 17:24:57 17:30:47 70° 21° (NNE) 17:36:36 437.505
XW-2F 20 Aug 17:29:35 17:33:05 39° 79° (E) 17:36:34 145.980 - 146.000
SRMSAT 20 Aug 17:35:11 17:39:11 18° 15° (NNE) 17:43:11 437.500
CUTE-I 20 Aug 17:36:20 17:41:27 46° 78° (ENE) 17:46:33 437.470
KAITUO 1B 20 Aug 17:55:37 17:59:19 84° 79° (ENE) 18:02:59 145.475/437.950
